{"data":{"norad_id":62130,"epoch":"2026-09-21T22:15:39.538080Z","epoch_age_seconds":58758,"freshness":"FRESH","line1":"1 62130U 24222S   26264.92754095  .00019926  00000+0  73101-3 0  9996","line2":"2 62130  43.0008 107.7089 0000979 302.2363  57.8394 15.27609892102766","mean_motion":15.27609892,"eccentricity":9.79e-5,"inclination_deg":43.0008,"raan_deg":107.7089,"arg_perigee_deg":302.2363,"mean_anomaly_deg":57.8394,"bstar":0.00073101,"rev_number":10276,"period_min":94.264904118597,"perigee_km":482.28788874145,"apogee_km":483.63129145379,"semimajor_km":6861.0965900976,"source":"CELESTRAK","updated_at":"2026-09-22T09:00:49.526938Z"}}